Location: アルンシュタイン
(50.0000°N, 10.0000°E)
Time: 04:34:13
(UTC+02:00)

X-37B - Visible Passes

Search period start: 17 October 2021 00:00
Search period end: 27 October 2021 00:00
Orbit: 385 x 389 km, 45.0° (Epoch: 13 October)

Date Brightness Start Highest point End Pass type
(mag) Time Alt. Az. Time Alt. Az. Time Alt. Az.
17 Oct 1.8 20:09:38 10° SW 20:12:23 29° S 20:12:23 29° S visible
18 Oct 2.2 19:11:36 10° SW 19:14:14 24° SSE 19:16:36 12° ESE visible
18 Oct 2.9 20:47:32 10° WSW 20:48:53 20° SW 20:48:53 20° SW visible
19 Oct 1.7 19:49:18 10° WSW 19:52:12 32° S 19:53:04 27° SE visible
20 Oct 2.0 18:51:09 10° SW 18:53:58 29° S 18:56:47 10° ESE visible
20 Oct 2.3 20:27:21 10° WSW 20:29:33 27° SSW 20:29:33 27° SSW visible
21 Oct 1.8 19:29:04 10° WSW 19:31:57 33° S 19:33:45 18° SE visible
21 Oct 3.8 21:05:44 10° WSW 21:06:02 11° WSW 21:06:02 11° WSW visible
22 Oct 2.2 20:07:15 10° WSW 20:09:55 25° SSW 20:10:16 24° S visible
23 Oct 2.1 19:08:53 10° WSW 19:11:43 30° S 19:14:32 10° SE visible
23 Oct 3.5 20:46:01 10° WSW 20:46:50 13° SW 20:46:50 13° SW visible
24 Oct 2.8 19:47:16 10° WSW 19:49:37 19° SSW 19:51:11 14° SSE visible
25 Oct 2.6 18:48:46 10° WSW 18:51:27 25° SSW 18:54:07 10° SE visible
26 Oct 3.4 19:27:33 10° WSW 19:29:16 14° SSW 19:30:59 10° S visible
